• en France
  • Liste des pays
  • À 7 jours
  • Température de l'eau
  • Carte satellitaire
  • Carte météo
  • Widgets météo
  • user-avatar
    Se connecter

    Météo par heure à Liberia

    Ce jour, 20 Août, Lundi

    Heure Température Précipitation Vent Pression Humidité
    00:00 +25°C° 0 mm 2 m/s 746 mmHg 85%
    01:00 +25°C° 0 mm 2 m/s 745 mmHg 85%
    02:00 +25°C° 0 mm 2 m/s 745 mmHg 85%
    03:00 +25°C° 0 mm 2 m/s 745 mmHg 85%
    04:00 +25°C° 0 mm 2 m/s 745 mmHg 85%
    05:00 +25°C° 0 mm 2 m/s 745 mmHg 85%
    06:00 +25°C° 0 mm 2 m/s 745 mmHg 85%
    07:00 +27°C° 0 mm 2 m/s 746 mmHg 77%
    08:00 +29°C° 0 mm 3 m/s 746 mmHg 69%
    09:00 +31°C° 0 mm 3 m/s 746 mmHg 61%
    10:00 +33°C° 0,2 mm 3 m/s 746 mmHg 60%
    11:00 +34°C° 0,2 mm 3 m/s 746 mmHg 58%
    12:00 +34°C° 0,2 mm 4 m/s 746 mmHg 57%
    13:00 +34°C° 0,4 mm 4 m/s 745 mmHg 59%
    14:00 +33°C° 0,4 mm 3 m/s 745 mmHg 62%
    15:00 +33°C° 0,4 mm 3 m/s 745 mmHg 64%
    16:00 +30°C° 0,8 mm 3 m/s 745 mmHg 70%
    17:00 +29°C° 0,8 mm 3 m/s 745 mmHg 76%
    18:00 +28°C° 0,8 mm 2 m/s 745 mmHg 82%
    19:00 +27°C° 0 mm 2 m/s 745 mmHg 83%
    20:00 +27°C° 0 mm 2 m/s 746 mmHg 84%
    21:00 +27°C° 0 mm 2 m/s 746 mmHg 85%
    22:00 +26°C° 0 mm 2 m/s 746 mmHg 86%
    23:00 +26°C° 0 mm 2 m/s 746 mmHg 86%

    Demain, 21 Août, Mardi

    Heure Température Précipitation Vent Pression Humidité
    00:00 +26°C° 0 mm 2 m/s 746 mmHg 87%
    01:00 +26°C° 0 mm 2 m/s 746 mmHg 88%
    02:00 +26°C° 0 mm 2 m/s 745 mmHg 89%
    03:00 +26°C° 0 mm 2 m/s 745 mmHg 89%
    04:00 +26°C° 0 mm 2 m/s 745 mmHg 90%
    05:00 +25°C° 0 mm 2 m/s 745 mmHg 90%
    06:00 +25°C° 0 mm 2 m/s 745 mmHg 90%
    07:00 +27°C° 0 mm 3 m/s 746 mmHg 83%
    08:00 +29°C° 0 mm 3 m/s 746 mmHg 75%
    09:00 +32°C° 0 mm 4 m/s 747 mmHg 68%
    10:00 +33°C° 0 mm 4 m/s 746 mmHg 64%
    11:00 +34°C° 0 mm 4 m/s 746 mmHg 60%
    12:00 +35°C° 0 mm 4 m/s 746 mmHg 56%
    13:00 +35°C° 0,3 mm 4 m/s 745 mmHg 57%
    14:00 +34°C° 0,3 mm 4 m/s 745 mmHg 59%
    15:00 +34°C° 0,3 mm 3 m/s 744 mmHg 60%
    16:00 +31°C° 0,2 mm 3 m/s 744 mmHg 66%
    17:00 +30°C° 0,2 mm 3 m/s 744 mmHg 71%
    18:00 +29°C° 0,2 mm 2 m/s 745 mmHg 76%
    19:00 +28°C° 0 mm 2 m/s 745 mmHg 79%
    20:00 +28°C° 0 mm 2 m/s 746 mmHg 82%
    21:00 +27°C° 0 mm 3 m/s 747 mmHg 84%
    22:00 +27°C° 0 mm 3 m/s 746 mmHg 85%
    23:00 +27°C° 0 mm 3 m/s 746 mmHg 86%

    Après-demain, 22 Août, Mercredi

    Heure Température Précipitation Vent Pression Humidité
    00:00 +26°C° 0 mm 3 m/s 746 mmHg 87%
    01:00 +26°C° 0 mm 3 m/s 746 mmHg 88%
    02:00 +26°C° 0 mm 3 m/s 745 mmHg 88%
    03:00 +26°C° 0 mm 3 m/s 745 mmHg 88%
    04:00 +26°C° 0 mm 3 m/s 745 mmHg 88%
    05:00 +26°C° 0 mm 3 m/s 745 mmHg 88%
    06:00 +26°C° 0 mm 4 m/s 745 mmHg 88%
    07:00 +28°C° 0 mm 4 m/s 745 mmHg 80%
    08:00 +30°C° 0 mm 5 m/s 746 mmHg 72%
    09:00 +32°C° 0 mm 6 m/s 746 mmHg 65%
    10:00 +34°C° 0 mm 6 m/s 746 mmHg 61%
    11:00 +35°C° 0 mm 6 m/s 746 mmHg 56%
    12:00 +36°C° 0 mm 6 m/s 746 mmHg 52%
    13:00 +35°C° 0,4 mm 6 m/s 745 mmHg 53%
    14:00 +35°C° 0,4 mm 6 m/s 744 mmHg 53%
    15:00 +35°C° 0,4 mm 5 m/s 744 mmHg 54%
    16:00 +33°C° 0,3 mm 5 m/s 744 mmHg 60%
    17:00 +32°C° 0,3 mm 4 m/s 744 mmHg 66%
    18:00 +29°C° 0,3 mm 3 m/s 744 mmHg 72%
    19:00 +28°C° 0,1 mm 3 m/s 745 mmHg 76%
    20:00 +28°C° 0,1 mm 3 m/s 746 mmHg 80%
    21:00 +27°C° 0,1 mm 2 m/s 746 mmHg 83%
    22:00 +27°C° 0 mm 2 m/s 746 mmHg 84%
    23:00 +26°C° 0 mm 2 m/s 746 mmHg 85%

    23 Août, Jeudi

    Heure Température Précipitation Vent Pression Humidité
    00:00 +26°C° 0 mm 2 m/s 746 mmHg 86%
    01:00 +26°C° 0,2 mm 2 m/s 746 mmHg 86%
    02:00 +26°C° 0,2 mm 2 m/s 745 mmHg 86%
    03:00 +26°C° 0,2 mm 1 m/s 745 mmHg 86%
    04:00 +26°C° 0,1 mm 2 m/s 745 mmHg 85%
    05:00 +26°C° 0,1 mm 2 m/s 745 mmHg 85%
    06:00 +26°C° 0,1 mm 2 m/s 746 mmHg 85%
    07:00 +27°C° 0 mm 2 m/s 746 mmHg 80%
    08:00 +28°C° 0 mm 2 m/s 747 mmHg 75%
    09:00 +29°C° 0 mm 3 m/s 747 mmHg 70%
    10:00 +31°C° 0,1 mm 3 m/s 747 mmHg 65%
    11:00 +33°C° 0,1 mm 3 m/s 746 mmHg 60%
    12:00 +34°C° 0,1 mm 4 m/s 746 mmHg 55%
    13:00 +33°C° 0,6 mm 4 m/s 745 mmHg 59%
    14:00 +33°C° 0,6 mm 4 m/s 745 mmHg 62%
    15:00 +32°C° 0,6 mm 4 m/s 744 mmHg 66%
    16:00 +30°C° 0,8 mm 4 m/s 744 mmHg 72%
    17:00 +28°C° 0,8 mm 4 m/s 745 mmHg 79%
    18:00 +27°C° 0,8 mm 4 m/s 745 mmHg 85%
    19:00 +26°C° 0,2 mm 3 m/s 745 mmHg 86%
    20:00 +26°C° 0,2 mm 3 m/s 746 mmHg 87%
    21:00 +26°C° 0,2 mm 3 m/s 746 mmHg 88%
    22:00 +25°C° 0,2 mm 3 m/s 746 mmHg 89%
    23:00 +25°C° 0,2 mm 2 m/s 746 mmHg 89%

    24 Août, Vendredi

    Heure Température Précipitation Vent Pression Humidité
    00:00 +25°C° 0,2 mm 2 m/s 745 mmHg 89%
    01:00 +25°C° 0,4 mm 2 m/s 745 mmHg 89%
    02:00 +25°C° 0,4 mm 2 m/s 745 mmHg 89%
    03:00 +25°C° 0,4 mm 2 m/s 744 mmHg 89%
    04:00 +25°C° 0,2 mm 2 m/s 745 mmHg 89%
    05:00 +25°C° 0,2 mm 2 m/s 745 mmHg 89%
    06:00 +25°C° 0,2 mm 2 m/s 745 mmHg 89%
    07:00 +26°C° 0,2 mm 2 m/s 746 mmHg 83%
    08:00 +28°C° 0,2 mm 2 m/s 746 mmHg 77%
    09:00 +29°C° 0,2 mm 2 m/s 746 mmHg 71%
    10:00 +31°C° 0,2 mm 2 m/s 746 mmHg 66%
    11:00 +32°C° 0,2 mm 2 m/s 746 mmHg 60%
    12:00 +35°C° 0,2 mm 2 m/s 745 mmHg 55%
    13:00 +34°C° 1,5 mm 2 m/s 745 mmHg 60%
    14:00 +33°C° 1,5 mm 3 m/s 744 mmHg 66%
    15:00 +31°C° 1,5 mm 3 m/s 744 mmHg 72%
    16:00 +30°C° 1,2 mm 3 m/s 744 mmHg 77%
    17:00 +28°C° 1,2 mm 2 m/s 744 mmHg 82%
    18:00 +27°C° 1,2 mm 2 m/s 745 mmHg 86%
    19:00 +27°C° 0,1 mm 2 m/s 745 mmHg 87%
    20:00 +27°C° 0,1 mm 2 m/s 746 mmHg 88%
    21:00 +27°C° 0,1 mm 1 m/s 746 mmHg 89%
    22:00 +26°C° 0,1 mm 1 m/s 746 mmHg 89%
    23:00 +26°C° 0,1 mm 1 m/s 746 mmHg 89%

    25 Août, Samedi

    Heure Température Précipitation Vent Pression Humidité
    00:00 +26°C° 0,1 mm 1 m/s 745 mmHg 90%
    01:00 +26°C° 0,1 mm 1 m/s 745 mmHg 90%
    02:00 +25°C° 0,1 mm 1 m/s 745 mmHg 90%
    03:00 +25°C° 0,1 mm 2 m/s 744 mmHg 90%
    04:00 +25°C° 0 mm 2 m/s 745 mmHg 89%
    05:00 +25°C° 0 mm 2 m/s 745 mmHg 89%
    06:00 +25°C° 0 mm 2 m/s 745 mmHg 89%
    07:00 +27°C° 0 mm 2 m/s 746 mmHg 81%
    08:00 +29°C° 0 mm 2 m/s 746 mmHg 72%
    09:00 +30°C° 0 mm 2 m/s 747 mmHg 64%
    10:00 +31°C° 0,4 mm 2 m/s 746 mmHg 62%
    11:00 +32°C° 0,4 mm 2 m/s 746 mmHg 59%
    12:00 +34°C° 0,4 mm 2 m/s 746 mmHg 57%
    13:00 +32°C° 1,8 mm 2 m/s 745 mmHg 62%
    14:00 +31°C° 1,8 mm 2 m/s 745 mmHg 68%
    15:00 +30°C° 1,8 mm 2 m/s 744 mmHg 74%
    16:00 +29°C° 2,6 mm 2 m/s 744 mmHg 78%
    17:00 +28°C° 2,6 mm 2 m/s 745 mmHg 83%
    18:00 +27°C° 2,6 mm 2 m/s 745 mmHg 87%
    19:00 +27°C° 1,3 mm 2 m/s 746 mmHg 88%
    20:00 +26°C° 1,3 mm 2 m/s 746 mmHg 89%
    21:00 +26°C° 1,3 mm 2 m/s 747 mmHg 89%
    22:00 +26°C° 0,6 mm 2 m/s 747 mmHg 90%
    23:00 +26°C° 0,6 mm 2 m/s 746 mmHg 90%
    Voir plus